Temp
8 8 7 7 7 9 9 9 9 9 9 9 9 9 8 8 9 8 8 8 8 9 9 9 9 9 9 10 10 10 9 8
8 8 7 7 8 9 9 10 9 9 9 8 8 8 7 7 8 8 8 8 8 8 8 8 8 8 8 9 8 8 9 8
8 8 7 7 8 9 9 9 9 9 8 8 7 7 7 6 7 7 7 7 7 7 7 7 7 7 6 7 7 6 7 7
9 8 8 7 7 9 9 9 9 9 8 7 6 6 7 6 7 6 6 7 7 6 6 6 6 5 5 5 5 6 6 6
9 8 8 8 8 8 7 8 7 7 6 6 6 7 6 6 6 6 6 6 5 5 5 5 4 5 6 5 5 6 6 6
9 8 8 9 9 8 8 8 8 8 7 7 7 7 6 6 6 6 6 6 5 5 5 5 5 4 4 4 5 5 5 5
10 9 8 9 9 9 9 9 8 8 8 7 7 7 6 6 6 6 6 6 5 5 4 4 4 4 4 3 3 3 4 5
10 9 8 8 8 9 8 8 8 8 7 7 7 7 6 6 5 5 5 5 5 5 4 4 4 4 4 4 3 3 3 3
10 9 8 8 8 8 7 8 8 8 8 7 7 6 6 5 5 5 5 5 5 4 4 4 3 3 3 4 4 3 3 3
10 9 8 7 7 8 7 7 8 7 7 7 7 6 6 5 5 4 4 4 4 4 4 4 3 4 4 4 4 4 3 3
9 9 8 7 7 7 7 7 7 7 7 7 7 7 6 5 4 4 4 4 4 4 4 3 3 3 3 4 4 3 3 3
10 9 8 7 7 7 7 7 7 7 7 7 7 7 6 5 5 4 4 3 3 4 3 3 3 3 3 4 4 4 3 3
9 9 8 8 8 7 7 7 7 7 7 7 7 6 5 5 4 4 3 3 3 3 3 3 3 3 3 3 3 3 3 3
8 8 7 7 7 7 7 7 7 7 7 7 6 6 6 5 4 3 3 3 3 3 3 3 3 3 3 2 3 3 4 4
9 8 8 7 7 7 6 6 6 6 6 6 6 6 5 5 4 3 3 2 2 2 2 2 2 2 2 2 2 3 4 4
8 8 8 7 7 7 6 6 5 5 5 5 5 4 4 4 4 3 3 2 2 1 2 2 2 2 2 2 2 2 2 3
8 8 7 7 7 7 6 6 5 4 4 4 3 3 3 3 3 3 3 2 2 1 1 1 1 1 1 2 2 2 2 1
8 7 7 7 6 6 5 5 4 4 3 3 2 2 2 2 3 2 2 2 2 1 1 1 1 1 1 1 1 2 2 1
7 7 6 6 5 5 5 4 3 3 2 2 2 1 1 1 1 1 1 1 1 1 0 0 0 0 0 0 1 1 1 1
7 6 6 5 5 4 4 3 3 2 1 1 0 -0 -1 -1 -1 -1 -1 -0 0 -0 0 0 -0 -0 -0 0 0 1 1 1
Height
1519 1521 1524 1526 1527 1528 1530 1532 1533 1534 1536 1537 1538 1539 1539 1540 1539 1539 1539 1539 1539 1539 1539 1539 1539 1539 1539 1540 1541 1542 1543 1544
1521 1523 1524 1525 1527 1528 1531 1532 1533 1534 1536 1537 1538 1539 1540 1540 1540 1541 1540 1539 1539 1539 1539 1538 1539 1539 1539 1540 1541 1542 1543 1545
1524 1524 1526 1526 1527 1528 1530 1532 1533 1535 1537 1538 1539 1538 1541 1540 1541 1541 1541 1540 1539 1539 1539 1539 1538 1538 1539 1540 1541 1540 1542 1545
1525 1526 1527 1528 1528 1529 1531 1532 1534 1535 1536 1538 1539 1542 1542 1543 1542 1541 1541 1540 1539 1539 1539 1539 1538 1537 1539 1540 1540 1540 1542 1543
1526 1528 1529 1530 1530 1531 1532 1534 1534 1536 1539 1539 1541 1541 1541 1540 1539 1540 1539 1538 1537 1537 1537 1538 1539 1538 1538 1537 1537 1538 1540 1542
1526 1528 1529 1532 1532 1533 1535 1536 1537 1538 1538 1538 1539 1540 1540 1541 1541 1541 1541 1539 1540 1539 1539 1540 1538 1536 1536 1535 1535 1536 1537 1538
1527 1528 1529 1532 1534 1536 1538 1538 1538 1539 1538 1537 1538 1538 1540 1539 1539 1538 1538 1538 1538 1538 1537 1537 1537 1536 1535 1534 1534 1534 1534 1535
1528 1529 1530 1532 1534 1536 1536 1537 1538 1537 1538 1538 1536 1536 1536 1536 1537 1536 1536 1536 1536 1535 1535 1534 1534 1533 1533 1533 1532 1531 1532 1532
1528 1530 1531 1532 1534 1535 1535 1537 1536 1536 1537 1536 1534 1533 1533 1533 1532 1533 1533 1533 1532 1531 1531 1531 1530 1530 1530 1531 1530 1529 1529 1529
1529 1531 1531 1532 1533 1535 1535 1535 1535 1535 1535 1535 1533 1530 1529 1528 1529 1529 1530 1529 1529 1528 1528 1527 1528 1528 1529 1529 1528 1528 1528 1527
1530 1532 1532 1532 1533 1533 1533 1533 1532 1531 1530 1531 1530 1529 1527 1525 1524 1524 1525 1525 1524 1524 1524 1524 1524 1525 1525 1525 1525 1525 1525 1525
1529 1531 1532 1532 1532 1532 1530 1529 1528 1527 1526 1525 1525 1524 1522 1520 1519 1519 1519 1518 1519 1519 1520 1520 1520 1521 1522 1522 1521 1521 1521 1521
1528 1530 1530 1529 1527 1526 1526 1524 1524 1523 1522 1521 1520 1518 1516 1515 1513 1512 1513 1513 1513 1514 1515 1515 1515 1517 1517 1517 1516 1516 1516 1516
1528 1527 1527 1526 1524 1523 1523 1520 1518 1517 1516 1515 1514 1511 1510 1507 1506 1505 1506 1507 1507 1508 1508 1509 1510 1512 1513 1514 1513 1513 1511 1510
1526 1526 1524 1523 1521 1520 1518 1515 1513 1512 1510 1508 1507 1505 1503 1501 1499 1498 1498 1499 1500 1502 1503 1503 1504 1506 1508 1510 1510 1509 1508 1505
1525 1524 1522 1520 1518 1515 1513 1510 1507 1506 1504 1501 1499 1497 1495 1494 1493 1493 1492 1492 1492 1495 1496 1497 1499 1500 1503 1504 1505 1507 1507 1507
1523 1521 1520 1517 1515 1511 1508 1504 1502 1498 1496 1494 1491 1489 1488 1487 1486 1485 1484 1484 1484 1486 1489 1491 1492 1494 1496 1499 1501 1503 1505 1507
1521 1518 1516 1513 1509 1506 1503 1499 1495 1492 1489 1486 1483 1481 1479 1479 1478 1477 1476 1475 1474 1475 1479 1482 1485 1487 1490 1493 1496 1498 1500 1503
1518 1515 1512 1508 1505 1501 1497 1493 1489 1485 1482 1479 1476 1473 1471 1470 1468 1466 1466 1466 1467 1467 1469 1472 1476 1479 1483 1486 1490 1494 1496 1499
1515 1511 1507 1504 1500 1495 1491 1487 1483 1479 1475 1471 1467 1463 1460 1458 1456 1455 1454 1455 1456 1457 1460 1462 1467 1471 1475 1480 1485 1489 1492 1495
Wind_Speed
18 17 16 16 12 9 8 8 9 9 8 8 7 8 8 8 8 9 10 9 9 9 8 7 8 8 7 4 2 4 7 9
13 14 15 15 12 9 9 10 10 10 9 8 8 9 11 12 9 11 10 9 10 10 10 9 8 7 7 6 4 5 1 10
18 14 14 12 11 10 10 10 10 10 10 9 10 11 11 10 11 12 12 10 10 10 10 9 7 5 12 8 6 2 5 2
16 15 14 12 10 9 10 9 8 6 5 7 10 1 4 5 9 12 13 12 12 8 9 9 5 7 8 8 6 7 4 5
14 15 15 13 13 7 5 4 4 4 3 3 1 5 4 7 10 12 13 16 14 14 13 12 5 11 8 9 9 4 3 5
15 15 17 15 11 8 5 3 6 6 8 6 6 3 6 8 5 6 8 12 7 13 5 8 16 13 10 10 8 6 7 10
14 14 16 11 11 10 9 9 9 6 9 11 6 7 8 10 8 11 10 11 12 12 9 9 12 11 10 12 9 9 10 12
15 13 13 12 12 9 13 12 5 12 10 9 14 12 9 10 11 11 11 12 12 13 11 13 13 11 12 12 12 12 11 12
14 11 10 9 9 9 9 6 8 7 8 11 17 19 16 14 13 13 14 14 16 18 19 18 14 11 10 11 14 12 13 12
12 9 10 10 8 6 8 6 10 9 11 13 16 18 19 18 17 14 15 17 18 18 17 15 14 13 13 14 14 12 13 14
10 8 5 5 6 11 8 11 16 17 14 15 17 18 19 20 21 19 19 21 21 21 19 19 17 17 17 15 16 16 16 15
8 6 6 7 9 11 16 15 18 19 20 17 20 22 23 22 22 20 21 22 22 21 22 21 20 18 17 17 17 14 16 16
4 5 14 18 21 17 19 19 20 20 18 17 20 20 20 24 25 26 24 24 23 22 22 23 25 22 20 21 21 21 22 24
8 10 12 14 21 21 18 20 21 25 29 29 27 26 27 27 29 28 26 24 23 23 26 26 21 20 21 19 20 18 20 22
16 16 18 17 18 18 21 23 27 28 25 23 22 22 24 22 22 23 24 25 26 26 24 25 28 27 21 21 11 11 15 16
8 11 11 14 16 20 24 27 26 27 27 27 27 26 28 28 29 30 29 28 29 29 28 25 25 27 24 24 23 17 5 4
10 14 16 18 19 20 22 25 28 30 32 31 29 28 27 27 28 30 33 34 35 33 30 27 28 29 25 24 22 24 24 12
15 17 19 20 22 23 25 27 28 27 29 31 33 29 24 23 22 25 28 32 34 34 33 35 32 27 28 27 25 22 26 24
18 19 21 21 23 24 23 26 28 28 28 26 26 26 25 25 27 28 27 22 29 33 32 32 34 35 29 27 26 27 23 23
20 21 22 23 24 26 26 26 28 25 25 27 27 25 27 28 29 32 31 31 30 21 34 34 33 34 35 33 27 25 23 25
Wind_Direction
161 167 162 158 173 153 146 137 129 119 107 96 82 66 50 34 36 31 10 355 346 346 349 347 339 343 343 343 19 160 159 141
162 169 168 168 174 157 149 139 130 125 113 88 83 66 43 24 32 12 360 350 339 342 344 343 342 345 359 5 69 97 137 119
165 171 163 167 168 161 153 144 139 128 109 78 67 49 16 348 343 352 351 345 336 338 345 345 355 359 18 31 72 76 134 238
177 167 170 169 167 164 153 148 131 124 68 40 70 181 236 242 317 351 350 350 350 357 1 12 13 26 354 352 18 285 130 253
173 170 174 153 190 171 130 88 68 68 156 261 200 256 319 348 330 346 336 341 8 336 344 355 336 286 245 241 247 203 83 265
176 179 174 156 204 133 172 179 176 218 283 248 210 334 330 316 285 241 290 323 304 294 291 278 282 309 305 293 276 264 176 222
181 185 171 160 167 169 183 188 207 196 237 278 268 224 239 267 268 269 264 263 269 285 291 282 279 288 305 301 286 277 266 252
185 186 179 182 160 200 205 199 212 225 223 245 274 275 258 257 259 274 281 279 272 268 263 259 245 242 249 280 290 274 248 253
180 187 190 195 172 225 202 221 242 235 267 260 265 282 283 282 278 273 273 261 264 264 269 268 281 290 284 283 289 284 283 274
179 188 197 199 213 236 231 251 263 257 260 267 274 280 283 283 283 279 277 274 265 260 262 267 264 264 266 262 258 266 275 271
170 182 222 243 244 247 265 256 251 264 262 258 264 273 275 273 271 269 267 263 264 260 256 257 255 257 257 259 267 267 253 256
157 171 205 243 256 264 281 263 270 270 272 271 272 270 268 265 269 271 275 269 255 254 257 252 254 253 258 259 253 258 264 258
178 261 297 292 278 270 260 273 275 274 272 276 271 277 276 271 265 264 262 262 259 251 252 253 249 248 256 260 267 266 257 258
353 322 291 269 256 279 273 276 271 270 271 276 281 279 278 272 268 263 256 249 252 256 249 243 246 248 249 257 267 272 270 263
315 296 277 277 271 276 276 281 283 286 290 287 280 276 275 276 275 270 259 247 249 251 252 245 244 241 242 244 252 256 270 249
295 301 298 298 293 289 287 288 285 286 288 289 285 280 275 271 268 265 263 259 257 251 248 246 243 241 238 238 242 239 270 198
319 307 302 299 296 292 291 287 287 288 286 288 287 284 280 277 274 271 266 260 259 253 245 244 245 240 235 234 234 239 241 252
312 308 304 301 299 298 295 295 294 293 290 288 288 290 287 278 277 271 266 261 253 251 249 243 238 237 236 231 234 231 226 234
318 312 311 309 307 305 303 299 298 297 297 292 291 289 286 284 277 271 263 260 257 247 244 243 236 235 230 231 230 233 226 222
319 317 314 313 311 308 308 304 303 300 297 294 291 281 274 270 265 261 256 253 241 243 243 237 232 231 232 227 226 227 227 217